Weather History for KSRR - April, 2013

Change the Weather History Date:

Monday, April 15, 2013

  Actual Average Record
Temperature  
Mean Temperature 57 °F -  
Max Temperature 68 °F 62 °F 73 °F (2002)
Min Temperature 46 °F 38 °F 24 °F (2014)
Degree Days  
Heating Degree Days 8    
Growing Degree Days 7 (Base 50)    
Moisture  
Dew Point 18 °F    
Average Humidity 21    
Maximum Humidity 43    
Minimum Humidity 12    
Precipitation  
Precipitation 0.00 in - - ()
Sea Level Pressure  
Sea Level Pressure 29.87 in    
Wind  
Wind Speed 16 mph (SW)    
Max Wind Speed 31 mph    
Max Gust Speed 43 mph    
Visibility 10 miles    
Events      
Averages and records for this station are not official NWS values.
T = Trace of Precipitation, MM = Missing Value Source: NWS Daily Summary

Daily Weather History Graph

Daily Weather History Graph

Search for Another Location

Airport or City:

Trip Planner

Search our weather history database for the weather conditions in past years. The results will help you decide how hot, cold, wet, or windy it might be!

Date:

Astronomy

Apr. 15, 2013 Rise Set
Actual Time 6:31 AM MDT 7:33 PM MDT
Civil Twilight 6:05 AM MDT 7:58 PM MDT
Nautical Twilight 5:35 AM MDT 8:29 PM MDT
Astronomical Twilight 5:04 AM MDT 9:00 PM MDT
Moon 10:08 AM MDT (4/15) No Moon Set
Length of Visible Light 13h 52m
Length of Day
13h 01m
Waxing Crescent, 25% of the Moon is Illuminated
Apr 15
Waxing Crescent
Apr 18
First Quarter
Apr 25
Full
May 2
Last Quarter
May 9
New

Hourly Weather History & Observations

Time (MDT) Temp. Windchill Dew Point Humidity Pressure Visibility Wind Dir Wind Speed Gust Speed Precip Events Conditions
12:15 AM 53.6 °F - 17.6 °F 24% 29.85 in 10.0 mi South 12.7 mph - N/A   Clear
12:35 AM 55.4 °F - 17.6 °F 23% 29.85 in 10.0 mi South 12.7 mph 18.4 mph N/A   Clear
12:55 AM 53.6 °F - 17.6 °F 24% 29.85 in 10.0 mi South 12.7 mph - N/A   Clear
1:15 AM 53.6 °F - 17.6 °F 24% 29.85 in 10.0 mi South 12.7 mph - N/A   Clear
1:35 AM 55.4 °F - 19.4 °F 25% 29.85 in 10.0 mi South 10.4 mph 24.2 mph N/A   Clear
1:55 AM 53.6 °F - 17.6 °F 24% 29.85 in 10.0 mi SSW 16.1 mph 21.9 mph N/A   Clear
2:15 AM 53.6 °F - 17.6 °F 24% 29.85 in 10.0 mi South 17.3 mph 25.3 mph N/A   Clear
2:35 AM 53.6 °F - 17.6 °F 24% 29.85 in 10.0 mi SSW 16.1 mph - N/A   Clear
2:55 AM 53.6 °F - 17.6 °F 24% 29.86 in 10.0 mi SSW 13.8 mph - N/A   Clear
3:15 AM 53.6 °F - 19.4 °F 26% 29.85 in 10.0 mi South 17.3 mph 26.5 mph N/A   Clear
3:35 AM 53.6 °F - 19.4 °F 26% 29.85 in 10.0 mi South 17.3 mph 27.6 mph N/A   Clear
3:55 AM 53.6 °F - 19.4 °F 26% 29.86 in 10.0 mi SSW 12.7 mph 21.9 mph N/A   Clear
4:15 AM 50.0 °F - 19.4 °F 30% 29.86 in 10.0 mi SSW 13.8 mph 18.4 mph N/A   Clear
4:35 AM 50.0 °F - 19.4 °F 30% 29.86 in 10.0 mi SSW 9.2 mph 19.6 mph N/A   Clear
4:55 AM 50.0 °F - 21.2 °F 32% 29.85 in 10.0 mi SSW 12.7 mph 23.0 mph N/A   Clear
5:15 AM 50.0 °F - 23.0 °F 35% 29.85 in 10.0 mi SSW 11.5 mph 19.6 mph N/A   Clear
5:35 AM 50.0 °F - 23.0 °F 35% 29.86 in 10.0 mi South 9.2 mph - N/A   Clear
5:55 AM 50.0 °F - 24.8 °F 37% 29.85 in 10.0 mi SSW 17.3 mph 21.9 mph N/A   Clear
6:15 AM 48.2 °F - 24.8 °F 40% 29.85 in 10.0 mi SSW 13.8 mph 20.7 mph N/A   Clear
6:35 AM 46.4 °F 41.5 °F 24.8 °F 43% 29.86 in 10.0 mi South 10.4 mph - N/A   Clear
6:55 AM 46.4 °F 42.4 °F 24.8 °F 43% 29.86 in 10.0 mi SSW 8.1 mph - N/A   Unknown
7:15 AM 50.0 °F - 23.0 °F 35% 29.86 in 10.0 mi South 9.2 mph 19.6 mph N/A   Clear
7:35 AM 51.8 °F - 23.0 °F 33% 29.87 in 10.0 mi SW 12.7 mph - N/A   Clear
7:55 AM 53.6 °F - 23.0 °F 30% 29.87 in 10.0 mi SSW 8.1 mph 18.4 mph N/A   Clear
8:15 AM 55.4 °F - 23.0 °F 29% 29.88 in 10.0 mi SW 15.0 mph - N/A   Clear
8:35 AM 55.4 °F - 23.0 °F 29% 29.88 in 10.0 mi SW 10.4 mph - N/A   Clear
8:55 AM 57.2 °F - 23.0 °F 27% 29.88 in 10.0 mi SW 12.7 mph - N/A   Clear
9:15 AM 57.2 °F - 21.2 °F 25% 29.88 in 10.0 mi SW 12.7 mph - N/A   Clear
9:35 AM 59.0 °F - 21.2 °F 23% 29.88 in 10.0 mi SSW 12.7 mph - N/A   Clear
9:55 AM 59.0 °F - 23.0 °F 25% 29.89 in 10.0 mi WSW 11.5 mph 16.1 mph N/A   Clear
10:15 AM 60.8 °F - 23.0 °F 23% 29.90 in 10.0 mi SW 11.5 mph 17.3 mph N/A   Clear
10:35 AM 60.8 °F - 23.0 °F 23% 29.89 in 10.0 mi SSW 18.4 mph - N/A   Clear
10:55 AM 62.6 °F - 23.0 °F 22% 29.89 in 10.0 mi SSW 17.3 mph 23.0 mph N/A   Clear
11:15 AM 62.6 °F - 23.0 °F 22% 29.89 in 10.0 mi SW 20.7 mph 28.8 mph N/A   Clear
11:35 AM 64.4 °F - 19.4 °F 18% 29.89 in 10.0 mi SSW 18.4 mph 26.5 mph N/A   Clear
11:55 AM 64.4 °F - 19.4 °F 18% 29.88 in 10.0 mi SSW 19.6 mph 25.3 mph N/A   Clear
12:15 PM 66.2 °F - 19.4 °F 17% 29.87 in 10.0 mi SW 23.0 mph 31.1 mph N/A   Clear
12:35 PM 66.2 °F - 17.6 °F 15% 29.87 in 10.0 mi SW 25.3 mph 34.5 mph N/A   Clear
12:55 PM 66.2 °F - 17.6 °F 15% 29.87 in 10.0 mi SW 20.7 mph 33.4 mph N/A   Clear
1:15 PM 68.0 °F - 15.8 °F 13% 29.86 in 10.0 mi SW 25.3 mph 36.8 mph N/A   Clear
1:35 PM 66.2 °F - 17.6 °F 15% 29.86 in 10.0 mi SSW 25.3 mph 35.7 mph N/A   Clear
1:55 PM 68.0 °F - 17.6 °F 15% 29.86 in 10.0 mi SW 25.3 mph 32.2 mph N/A   Clear
2:15 PM 68.0 °F - 15.8 °F 13% 29.86 in 10.0 mi SW 20.7 mph 33.4 mph N/A   Clear
2:35 PM 68.0 °F - 15.8 °F 13% 29.86 in 10.0 mi SW 25.3 mph 34.5 mph N/A   Clear
2:55 PM 68.0 °F - 15.8 °F 13% 29.86 in 10.0 mi SW 20.7 mph 29.9 mph N/A   Clear
3:15 PM 68.0 °F - 15.8 °F 13% 29.85 in 10.0 mi SW 21.9 mph 34.5 mph N/A   Clear
3:35 PM 68.0 °F - 15.8 °F 13% 29.85 in 10.0 mi SW 24.2 mph 31.1 mph N/A   Clear
3:55 PM 68.0 °F - 15.8 °F 13% 29.84 in 10.0 mi SW 17.3 mph 35.7 mph N/A   Clear
4:15 PM 68.0 °F - 14.0 °F 12% 29.84 in 10.0 mi South 18.4 mph 34.5 mph N/A   Clear
4:35 PM 68.0 °F - 14.0 °F 12% 29.84 in 10.0 mi SW 23.0 mph 32.2 mph N/A   Clear
4:55 PM 68.0 °F - 14.0 °F 12% 29.84 in 10.0 mi SW 20.7 mph 33.4 mph N/A   Clear
5:15 PM 68.0 °F - 14.0 °F 12% 29.84 in 10.0 mi SSW 18.4 mph 35.7 mph N/A   Clear
5:35 PM 68.0 °F - 14.0 °F 12% 29.84 in 10.0 mi SSW 19.6 mph 28.8 mph N/A   Clear
5:55 PM 66.2 °F - 14.0 °F 13% 29.84 in 10.0 mi SW 31.1 mph 38.0 mph N/A   Clear
6:15 PM 66.2 °F - 14.0 °F 13% 29.85 in 10.0 mi SW 27.6 mph 34.5 mph N/A   Clear
6:35 PM 66.2 °F - 14.0 °F 13% 29.85 in 10.0 mi SW 21.9 mph 39.1 mph N/A   Clear
6:55 PM 64.4 °F - 14.0 °F 14% 29.86 in 10.0 mi SW 18.4 mph 26.5 mph N/A   Clear
7:15 PM 64.4 °F - 14.0 °F 14% 29.87 in 10.0 mi SW 18.4 mph 33.4 mph N/A   Clear
7:35 PM 62.6 °F - 14.0 °F 15% 29.88 in 10.0 mi SW 11.5 mph - N/A   Clear
7:55 PM 62.6 °F - 15.8 °F 16% 29.88 in 10.0 mi WSW 10.4 mph 21.9 mph N/A   Clear
8:15 PM 62.6 °F - 15.8 °F 16% 29.89 in 10.0 mi SW 12.7 mph 27.6 mph N/A   Clear
8:35 PM 60.8 °F - 14.0 °F 16% 29.90 in 10.0 mi SW 11.5 mph 18.4 mph N/A   Clear
8:55 PM 60.8 °F - 14.0 °F 16% 29.91 in 10.0 mi SW 11.5 mph - N/A   Clear
9:15 PM 60.8 °F - 14.0 °F 16% 29.91 in 10.0 mi SW 15.0 mph 21.9 mph N/A   Clear
9:35 PM 60.8 °F - 14.0 °F 16% 29.92 in 10.0 mi SW 16.1 mph 23.0 mph N/A   Clear
9:55 PM 60.8 °F - 15.8 °F 17% 29.91 in 10.0 mi WSW 23.0 mph 29.9 mph N/A   Clear
10:15 PM 60.8 °F - 17.6 °F 19% 29.90 in 10.0 mi WSW 26.5 mph 36.8 mph N/A   Clear
10:35 PM 60.8 °F - 17.6 °F 19% 29.91 in 10.0 mi WSW 21.9 mph 34.5 mph N/A   Clear
10:55 PM 59.0 °F - 17.6 °F 20% 29.91 in 10.0 mi WSW 23.0 mph 32.2 mph N/A   Clear
11:15 PM 59.0 °F - 17.6 °F 20% 29.91 in 10.0 mi WSW 29.9 mph 42.6 mph N/A   Clear
11:35 PM 59.0 °F - 17.6 °F 20% 29.92 in 10.0 mi WSW 20.7 mph 27.6 mph N/A   Clear
11:55 PM 59.0 °F - 17.6 °F 20% 29.92 in 10.0 mi WSW 20.7 mph 31.1 mph N/A   Clear